Location: Ohmer (historical)
(38.0096°N, 122.0227°W)
Time: 00:18:59
(UTC+00:00)

Cosmos 783 Rocket - Pass Details

Date: 14 February 2026
Orbit: 754 x 775 km, 74.1° (Epoch: 10 March)

Event Time Altitude Azimuth Distance (km) Brightness Sun altitude
Rises 13:41:09 0° 340° (NNW) 3,221 7.5 -15.9°
Reaches altitude 10° 13:43:32 10° 340° (NNW) 2,289 6.7 -15.5°
Maximum altitude 13:48:44 82° 253° (WSW) 767 4.4 -14.4°
Drops below altitude 10° 13:53:52 10° 167° (SSE) 2,270 7.2 -13.4°
Sets 13:56:13 0° 166° (SSE) 3,190 8.0 -13.0°
